Flag for Romania Weather past 2 weeks in Timișoara, Romania

Now
46 °F

Clear.


Feels Like: 41 °F
Forecast: 34 / 52 °F
Wind: 10 mph from West

Location: Timisoara Airport

Current Time: Apr 1, 2015 at 6:38:14 AM

Latest Report: Apr 1, 2015 at 6:00 AM


Visibility: 10 mi

Pressure: 29.74 "Hg

Humidity: 82%

Dew point: 41 °F

Location of TimișoaraLocation

Historic Weather in Timișoara — Graph

°F

Timișoara temperature yesterday

Maximum temperature yesterday: 55 °F (at 5:30 PM)
Minimum temperature yesterday: 34 °F (at 7:00 AM)
Average temperature yesterday: 47 °F

Past Weeks' High & Low Weather Summary

 TemperatureHumidityPressure
High72 °F (Mar 26, 2:30 PM)100% (Mar 20, 4:30 AM)30.51 "Hg (Mar 20, 4:30 AM)
Low25 °F (Mar 21, 6:00 AM)24% (Mar 20, 3:30 PM)29.56 "Hg (Mar 30, 3:30 PM)
Average48 °F65%29.97 "Hg
* Reported Mar 17 4:00 AM — Apr 1 5:30 AM, Timișoara, Weather by CustomWeather, © 2015

Note: Actual official high and low records may vary slightly from our data, if they occured in-between our weather recording intervals... More about our weather records

Advertising

Timișoara weather history for previous 24 hours

 ConditionsComfort  
Time TempWeatherWind HumidityBarometerVisibility
5:30 AM
Wed, Apr 1
46 °FClear.9 mph87%29.74 "Hg10 mi
5:00 AM46 °FClear.9 mph87%29.71 "Hg10 mi
4:30 AM48 °FOvercast.10 mph87%29.71 "Hg10 mi
4:00 AM48 °FPassing clouds.9 mph87%29.68 "HgN/A
3:30 AM48 °FClear.5 mph94%29.68 "Hg10 mi
3:00 AM50 °FClear.8 mph88%29.71 "Hg10 mi
2:30 AM50 °FPassing clouds.8 mph88%29.68 "HgN/A
2:00 AM50 °FPassing clouds.7 mph82%29.68 "HgN/A
1:30 AM52 °FLight rain. Passing clouds.12 mph77%29.68 "HgN/A
1:00 AM50 °FSprinkles. Passing clouds.7 mph94%29.65 "HgN/A
12:30 AM48 °FSprinkles. Passing clouds.8 mph100%29.65 "Hg5 mi
12:00 AM50 °FSprinkles. Passing clouds.13 mph88%29.65 "Hg4 mi
11:30 PM
Tue, Mar 31
50 °FSprinkles. Passing clouds.14 mph82%29.65 "Hg4 mi
11:00 PM52 °FLight rain. Clear.7 mph67%29.59 "HgN/A
10:30 PM50 °FLight rain. Clear.7 mph71%29.56 "HgN/A
10:00 PM50 °FClear.5 mph76%29.56 "Hg10 mi
9:30 PM50 °FClear.6 mph71%29.56 "Hg10 mi
9:00 PM48 °FSunny.5 mph82%29.56 "Hg10 mi
8:30 PM50 °FSunny.5 mph71%29.56 "Hg10 mi
8:00 PM52 °FSunny.3 mph67%29.56 "Hg10 mi
7:30 PM55 °FSunny.8 mph55%29.56 "Hg10 mi
7:00 PM55 °FSunny.9 mph51%29.56 "Hg10 mi
6:30 PM55 °FSunny.9 mph51%29.59 "Hg10 mi
6:00 PM55 °FSunny.10 mph47%29.59 "Hg10 mi
5:30 PM55 °FSunny.10 mph55%29.62 "Hg10 mi
5:00 PM54 °FPassing clouds.12 mph54%29.62 "HgN/A
4:30 PM54 °FPassing clouds.13 mph54%29.65 "HgN/A
4:00 PM52 °FPassing clouds.15 mph58%29.68 "HgN/A
3:30 PM52 °FPassing clouds.14 mph54%29.71 "HgN/A
3:00 PM54 °FPassing clouds.16 mph54%29.74 "HgN/A
2:30 PM52 °FScattered clouds.14 mph58%29.77 "HgN/A
2:00 PM52 °FScattered clouds.14 mph54%29.80 "HgN/A
1:30 PM52 °FScattered clouds.15 mph54%29.80 "HgN/A
1:00 PM50 °FScattered clouds.12 mph58%29.83 "HgN/A
12:30 PM50 °FPartly sunny.13 mph54%29.83 "HgN/A
12:00 PM50 °FPartly sunny.9 mph58%29.83 "HgN/A
11:30 AM50 °FScattered clouds.6 mph58%29.86 "HgN/A
11:00 AM48 °FSunny.3 mph66%29.83 "Hg10 mi
10:30 AM46 °FPassing clouds.7 mph71%29.86 "HgN/A
10:00 AM43 °FPassing clouds.7 mph81%29.89 "HgN/A
9:30 AM43 °FSunny.7 mph81%29.89 "Hg10 mi
9:00 AM39 °FSunny.6 mph87%29.89 "Hg10 mi
8:30 AM37 °FSunny.3 mph93%29.86 "Hg10 mi
8:00 AM36 °FClear.3 mph93%29.86 "Hg10 mi
7:30 AM36 °FClear.1 mph93%29.86 "Hg10 mi
7:00 AM34 °FClear.No wind100%29.86 "Hg10 mi
6:30 AM36 °FClear.2 mph93%29.83 "Hg10 mi
Weather by CustomWeather, © 2015

See weather overviewHow to use our weather pages